Location: Zagreb
(45.8000°N, 16.0000°E)
Time: 03:06:29
(UTC+02:00)

Vanguard 3 - Visible Passes

Search period start: 08 August 2022 00:00
Search period end: 18 August 2022 00:00
Orbit: 508 x 3258 km, 33.3° (Epoch: 07 August)

Date Brightness Start Highest point End Pass type
(mag) Time Alt. Az. Time Alt. Az. Time Alt. Az.
08 Aug 8.3 04:02:04 13° SSE 04:02:04 13° SSE 04:03:11 10° SSE visible
09 Aug 8.3 04:56:19 10° SSW 04:57:47 12° S 04:59:16 10° SSE visible
11 Aug 8.3 04:40:13 11° SSW 04:40:19 11° SSW 04:41:28 10° S visible
14 Aug 10.1 21:28:42 10° S 21:31:23 11° SSE 21:31:23 11° SSE visible
15 Aug 9.9 22:21:26 10° SSW 22:26:22 18° S 22:26:22 18° S visible
16 Aug 9.8 21:06:50 10° S 21:13:34 16° SSE 21:16:40 14° SE visible
16 Aug 9.9 23:17:30 10° SW 23:21:15 18° SSW 23:21:15 18° SSW visible
17 Aug 9.4 22:01:29 10° SSW 22:10:56 24° SSE 22:11:27 24° SSE visible
